Home   Weather   Almaty   Past weeks
Flag for Kazakhstan

Past Weather in Almaty, Kazakhstan — Yesterday and Last 2 Weeks

Now
45 °F

Scattered clouds.


Feels Like: 45 °F
Forecast: 54 / 31 °F
Wind: 1 mph from North

Location: Almaty Airport

Current Time: Mar 20, 2019 at 11:44:47 am

Latest Report: Mar 20, 2019 at 11:00 am


Visibility: N/A

Pressure: 30.09 "Hg (27.33 "Hg at 790m altitude)

Humidity: 53%

Dew Point: 28 °F

Location of AlmatyLocation

Past Weather in Almaty — Graph

°F

Almaty Temperature Yesterday

Maximum temperature yesterday: 48 °F (at 3:30 pm)
Minimum temperature yesterday: 25 °F (at 5:30 am)
Average temperature yesterday: 35 °F

High & Low Weather Summary for the Past Weeks

 TemperatureHumidityPressure
High70 °F (Mar 16, 2:30 pm)100% (Mar 5, 10:00 am)30.33 "Hg (Mar 5, 10:00 am)
Low25 °F (Mar 19, 5:30 am)18% (Mar 16, 3:00 pm)29.83 "Hg (Mar 18, 4:00 pm)
Average42 °F71%30.11 "Hg
* Reported Mar 5 10:00 am — Mar 20 10:00 am, Almaty. Weather by CustomWeather, © 2019

Note: Actual official high and low records may vary slightly from our data, if they occured in-between our weather recording intervals... More about our weather records

Advertising

Almaty Weather History for the Previous 24 Hours

Scroll right to see more
 ConditionsComfort  
Time TempWeatherWind HumidityBarometerVisibility
10:00 am
Wed, Mar 20
39 °FScattered clouds.1 mph61%30.12 "HgN/A
9:30 am36 °FScattered clouds.1 mph70%30.12 "HgN/A
9:00 am34 °FScattered clouds.1 mph70%30.12 "HgN/A
8:30 am32 °FIce fog.3 mph75%30.12 "Hg3 mi
8:00 am32 °FIce fog.3 mph75%30.12 "Hg3 mi
7:30 am28 °FIce fog.1 mph86%30.12 "Hg2 mi
6:30 am28 °FIce fog.1 mph86%30.09 "Hg3 mi
6:00 am28 °FIce fog.3 mph86%30.09 "Hg3 mi
5:30 am28 °FIce fog.1 mph86%30.09 "Hg3 mi
5:00 am30 °FIce fog.6 mph80%30.09 "Hg3 mi
4:00 am30 °FIce fog.1 mph80%30.07 "Hg3 mi
3:30 am30 °FIce fog.3 mph80%30.07 "Hg2 mi
2:30 am32 °FIce fog.3 mph80%30.09 "Hg3 mi
2:00 am32 °FIce fog.3 mph80%30.07 "Hg3 mi
1:30 am32 °FIce fog.3 mph80%30.07 "Hg2 mi
1:00 am34 °FFog.6 mph75%30.07 "Hg2 mi
12:30 am36 °FFog.8 mph70%30.07 "Hg2 mi
12:00 am34 °FFog.6 mph75%30.07 "Hg2 mi
11:30 pm
Tue, Mar 19
36 °FPassing clouds.6 mph70%30.07 "Hg2 mi
11:00 pm36 °FPassing clouds.6 mph70%30.07 "Hg2 mi
10:30 pm36 °FPassing clouds.6 mph70%30.07 "Hg2 mi
10:00 pm36 °FPassing clouds.6 mph70%30.07 "Hg2 mi
9:30 pm37 °FPassing clouds.6 mph70%30.07 "Hg1 mi
9:00 pm37 °FPassing clouds.3 mph70%30.07 "Hg1 mi
8:30 pm39 °FPassing clouds.No wind65%30.07 "Hg1 mi
8:00 pm39 °FPassing clouds.1 mph65%30.04 "Hg2 mi
7:30 pm39 °FPassing clouds.6 mph65%30.04 "HgN/A
7:00 pm43 °FPassing clouds.6 mph53%30.04 "HgN/A
6:30 pm45 °FPassing clouds.6 mph49%30.01 "HgN/A
6:00 pm46 °FPassing clouds.6 mph46%30.01 "HgN/A
5:30 pm46 °FPassing clouds.6 mph46%29.98 "HgN/A
5:00 pm48 °FScattered clouds.6 mph43%29.98 "HgN/A
4:30 pm48 °FScattered clouds.6 mph43%29.98 "HgN/A
4:00 pm48 °FScattered clouds.6 mph43%29.98 "HgN/A
3:30 pm48 °FScattered clouds.6 mph43%29.98 "HgN/A
3:00 pm46 °FScattered clouds.3 mph46%29.98 "HgN/A
2:30 pm45 °FScattered clouds.3 mph46%29.98 "HgN/A
2:00 pm45 °FScattered clouds.3 mph46%29.98 "HgN/A
1:30 pm43 °FScattered clouds.3 mph46%29.98 "HgN/A
1:00 pm41 °FScattered clouds.3 mph49%29.98 "HgN/A
12:30 pm39 °FScattered clouds.6 mph52%29.98 "HgN/A
12:00 pm37 °FScattered clouds.3 mph56%29.98 "HgN/A
11:30 am36 °FScattered clouds.3 mph56%29.98 "HgN/A
11:00 am34 °FScattered clouds.3 mph60%29.95 "HgN/A
Weather by CustomWeather, © 2019

See weather overview